Location: Biltmore Gardens
(41.6070°N, 83.4666°W)
Time: 09:22:03
(UTC+00:00)

Cosmos 2344 - Pass Details

Date: 22 October 2020
Orbit: 1246 x 2997 km, 63.3° (Epoch: 03 December)

Event Time Altitude Azimuth Distance (km) Brightness Sun altitude
Exits shadow 10:04:43 32° 246° (WSW) 2,003 4.1 -21.2°
Maximum altitude 10:08:15 59° 312° (NW) 1,434 3.6 -20.5°
Drops below altitude 10° 10:16:05 10° 31° (NNE) 3,456 6.3 -19.1°
Sets 10:19:15 0° 36° (NE) 4,585 7.0 -18.5°
